Voltar ao catálogo

FENGYUN 1C DEB

LostSSO
NORAD 37596·DEBRIS·🇨🇳 China

Lançado May 10, 1999 de Taiyuan Satellite Launch Center

Loading…

Próximas Passagens (próximas 24 horas)

TLE

ObsoletoSource: Space-Track

Época: Sep 14, 2022, 00:45 UTC

1 37596U 99025EKQ 22257.03180946  .00003408  00000-0  15542-2 0  9998
2 37596  98.9160 334.6263 0031469 166.4037 316.9892 14.22019054720692

Acompanhe FENGYUN 1C DEB em tempo real com AllMySat

Download on the App Store